Location: Arboyeti
(42.1122°N, 44.6017°E)
Time: 16:32:55
(UTC+00:00)

SeaSat 1 - Pass Details

Date: 19 April 2021
Orbit: 744 x 747 km, 108.0° (Epoch: 06 May)

Event Time Altitude Azimuth Distance (km) Brightness Sun altitude
Rises 20:35:53 0° 16° (NNE) 3,201 6.5 -36.1°
Reaches altitude 10° 20:38:25 10° 5° (N) 2,273 5.7 -36.2°
Enters shadow 20:41:24 25° 332° (NNW) 1,468 4.4 -36.2°
